
SB KEPS @ AMSAT $ORB15008.O Orbital Elements 15008.OSCAR
HR AMSAT ORBITAL ELEMENTS FOR OSCAR SATELLITES FROM WA5QGD FORT WORTH,TX January 8, 2015 BID: ORB15008.O TO ALL RADIO AMATEURS BT
Satellite: AO-07 Catalog number: 07530 Epoch time: 15007.53316090 Element set: 162 Inclination: 101.5006 deg RA of node: 347.8297 deg Eccentricity: 0.0011661 Arg of perigee: 256.2032 deg Mean anomaly: 250.7734 deg Mean motion: 12.53610644 rev/day Decay rate: -1.6e-07 rev/day^2 Epoch rev: 83712 Checksum: 259
Satellite: FO-29 Catalog number: 24278 Epoch time: 15007.54982613 Element set: 551 Inclination: 098.5220 deg RA of node: 358.2311 deg Eccentricity: 0.0351385 Arg of perigee: 127.3429 deg Mean anomaly: 344.2123 deg Mean motion: 13.53040092 rev/day Decay rate: 2.7e-07 rev/day^2 Epoch rev: 90830 Checksum: 284
Satellite: SO-33 Catalog number: 25509 Epoch time: 15008.58168241 Element set: 919 Inclination: 031.4331 deg RA of node: 076.3929 deg Eccentricity: 0.0348600 Arg of perigee: 114.2306 deg Mean anomaly: 029.4995 deg Mean motion: 14.29796712 rev/day Decay rate: 2.43e-06 rev/day^2 Epoch rev: 84656 Checksum: 318
Satellite: RS-22 Catalog number: 27939 Epoch time: 15008.55689936 Element set: 199 Inclination: 097.8198 deg RA of node: 177.7536 deg Eccentricity: 0.0012969 Arg of perigee: 171.9023 deg Mean anomaly: 188.2394 deg Mean motion: 14.65696588 rev/day Decay rate: 1.207e-05 rev/day^2 Epoch rev: 60280 Checksum: 374
Satellite: HO-68 Catalog number: 36122 Epoch time: 15008.78299803 Element set: 281 Inclination: 100.2199 deg RA of node: 059.1162 deg Eccentricity: 0.0007787 Arg of perigee: 126.2657 deg Mean anomaly: 233.9175 deg Mean motion: 13.16322568 rev/day Decay rate: -6.0e-07 rev/day^2 Epoch rev: 24348 Checksum: 309
Satellite: AO-73 Catalog number: 39444 Epoch time: 15008.45495324 Element set: 352 Inclination: 097.7515 deg RA of node: 076.9864 deg Eccentricity: 0.0059485 Arg of perigee: 296.5125 deg Mean anomaly: 062.9995 deg Mean motion: 14.79417315 rev/day Decay rate: 3.326e-05 rev/day^2 Epoch rev: 5979 Checksum: 364
Satellite: EO-79 Catalog number: 40025 Epoch time: 15008.78021203 Element set: 596 Inclination: 097.9673 deg RA of node: 268.7616 deg Eccentricity: 0.0013222 Arg of perigee: 352.2682 deg Mean anomaly: 007.8356 deg Mean motion: 14.86323810 rev/day Decay rate: 4.076e-05 rev/day^2 Epoch rev: 3011 Checksum: 295
/EX SB KEPS @ AMSAT $ORB15008.D Orbital Elements 15008.MICROS
HR AMSAT ORBITAL ELEMENTS FOR THE MICROSATS FROM WA5QGD FORT WORTH,TX January 8, 2015 BID: ORB15008.D TO ALL RADIO AMATEURS BT
Satellite: UO-11 Catalog number: 14781 Epoch time: 15007.36902658 Element set: 708 Inclination: 097.8250 deg RA of node: 068.2476 deg Eccentricity: 0.0007818 Arg of perigee: 228.2071 deg Mean anomaly: 131.8475 deg Mean motion: 14.82072381 rev/day Decay rate: 1.004e-05 rev/day^2 Epoch rev: 65820 Checksum: 300
Satellite: AO-16 Catalog number: 20439 Epoch time: 15007.43590498 Element set: 212 Inclination: 098.5278 deg RA of node: 306.1179 deg Eccentricity: 0.0009709 Arg of perigee: 275.3511 deg Mean anomaly: 223.5739 deg Mean motion: 14.32468423 rev/day Decay rate: 1.99e-06 rev/day^2 Epoch rev: 30372 Checksum: 312
Satellite: LO-19 Catalog number: 20442 Epoch time: 15008.41411657 Element set: 146 Inclination: 098.4988 deg RA of node: 307.1181 deg Eccentricity: 0.0010680 Arg of perigee: 259.2938 deg Mean anomaly: 100.7043 deg Mean motion: 14.32666058 rev/day Decay rate: 2.12e-06 rev/day^2 Epoch rev: 30406 Checksum: 280
Satellite: AO-27 Catalog number: 22825 Epoch time: 15007.48260322 Element set: 860 Inclination: 098.6896 deg RA of node: 317.7352 deg Eccentricity: 0.0009310 Arg of perigee: 064.1593 deg Mean anomaly: 073.0343 deg Mean motion: 14.29815691 rev/day Decay rate: 1.86e-06 rev/day^2 Epoch rev: 10997 Checksum: 314
Satellite: IO-26 Catalog number: 22826 Epoch time: 15008.45733035 Element set: 618 Inclination: 098.6838 deg RA of node: 318.8963 deg Eccentricity: 0.0009700 Arg of perigee: 054.1726 deg Mean anomaly: 306.0356 deg Mean motion: 14.30126723 rev/day Decay rate: 2.42e-06 rev/day^2 Epoch rev: 11025 Checksum: 287
Satellite: GO-32 Catalog number: 25397 Epoch time: 15008.49593590 Element set: 539 Inclination: 098.4995 deg RA of node: 324.1311 deg Eccentricity: 0.0002380 Arg of perigee: 087.0237 deg Mean anomaly: 051.0836 deg Mean motion: 14.23505496 rev/day Decay rate: 1.14e-06 rev/day^2 Epoch rev: 85707 Checksum: 310
Satellite: NO-44 Catalog number: 26931 Epoch time: 15008.57761306 Element set: 793 Inclination: 067.0502 deg RA of node: 228.7802 deg Eccentricity: 0.0007010 Arg of perigee: 268.2690 deg Mean anomaly: 091.7608 deg Mean motion: 14.30236243 rev/day Decay rate: 1.36e-06 rev/day^2 Epoch rev: 69297 Checksum: 299
Satellite: SO-50 Catalog number: 27607 Epoch time: 15007.37088002 Element set: 625 Inclination: 064.5575 deg RA of node: 329.6857 deg Eccentricity: 0.0071010 Arg of perigee: 320.8118 deg Mean anomaly: 038.7853 deg Mean motion: 14.74337145 rev/day Decay rate: 1.583e-05 rev/day^2 Epoch rev: 64757 Checksum: 313
Satellite: CO-55 Catalog number: 27844 Epoch time: 15008.53028825 Element set: 111 Inclination: 098.6976 deg RA of node: 019.3397 deg Eccentricity: 0.0010260 Arg of perigee: 047.8707 deg Mean anomaly: 104.1813 deg Mean motion: 14.21679955 rev/day Decay rate: 3.69e-06 rev/day^2 Epoch rev: 59775 Checksum: 332
Satellite: CO-57 Catalog number: 27848 Epoch time: 15007.52560047 Element set: 48 Inclination: 098.7073 deg RA of node: 018.1721 deg Eccentricity: 0.0010366 Arg of perigee: 056.9095 deg Mean anomaly: 094.8184 deg Mean motion: 14.21342931 rev/day Decay rate: 2.87e-06 rev/day^2 Epoch rev: 59752 Checksum: 318
Satellite: AO-51 Catalog number: 28375 Epoch time: 15007.49443210 Element set: 32 Inclination: 098.2766 deg RA of node: 312.7152 deg Eccentricity: 0.0084129 Arg of perigee: 095.1201 deg Mean anomaly: 265.9598 deg Mean motion: 14.41547603 rev/day Decay rate: 3.17e-06 rev/day^2 Epoch rev: 55334 Checksum: 297
Satellite: CP3 Catalog number: 31129 Epoch time: 15007.50062174 Element set: 941 Inclination: 097.9609 deg RA of node: 340.4799 deg Eccentricity: 0.0098833 Arg of perigee: 094.5709 deg Mean anomaly: 052.3204 deg Mean motion: 14.55323355 rev/day Decay rate: 1.393e-05 rev/day^2 Epoch rev: 40974 Checksum: 312
Satellite: CO-65 Catalog number: 32785 Epoch time: 15008.18037983 Element set: 160 Inclination: 097.6718 deg RA of node: 057.5124 deg Eccentricity: 0.0012634 Arg of perigee: 230.0080 deg Mean anomaly: 178.6601 deg Mean motion: 14.86204839 rev/day Decay rate: 2.732e-05 rev/day^2 Epoch rev: 36246 Checksum: 305
Satellite: PRISM Catalog number: 33493 Epoch time: 15008.86983300 Element set: 651 Inclination: 098.2504 deg RA of node: 198.6399 deg Eccentricity: 0.0017507 Arg of perigee: 130.8172 deg Mean anomaly: 229.4577 deg Mean motion: 14.91634824 rev/day Decay rate: 7.442e-05 rev/day^2 Epoch rev: 32281 Checksum: 319
Satellite: SOHLA-1 Catalog number: 33496 Epoch time: 15007.95662119 Element set: 557 Inclination: 098.1909 deg RA of node: 134.7248 deg Eccentricity: 0.0005245 Arg of perigee: 319.2003 deg Mean anomaly: 179.8294 deg Mean motion: 14.71132391 rev/day Decay rate: 6.55e-06 rev/day^2 Epoch rev: 31961 Checksum: 312
Satellite: TISAT-1 Catalog number: 36799 Epoch time: 15008.22273957 Element set: 834 Inclination: 098.0158 deg RA of node: 106.9297 deg Eccentricity: 0.0013395 Arg of perigee: 017.3523 deg Mean anomaly: 012.6396 deg Mean motion: 14.87271953 rev/day Decay rate: 5.115e-05 rev/day^2 Epoch rev: 24317 Checksum: 320
Satellite: STUDSAT Catalog number: 36801 Epoch time: 15007.94221870 Element set: 978 Inclination: 098.0533 deg RA of node: 119.6194 deg Eccentricity: 0.0006360 Arg of perigee: 322.4932 deg Mean anomaly: 173.6384 deg Mean motion: 15.04320639 rev/day Decay rate: 2.4551e-04 rev/day^2 Epoch rev: 24381 Checksum: 294
Satellite: ALMASAT-1 Catalog number: 38078 Epoch time: 15008.83886697 Element set: 264 Inclination: 069.4607 deg RA of node: 278.2822 deg Eccentricity: 0.0528504 Arg of perigee: 116.4622 deg Mean anomaly: 249.1979 deg Mean motion: 14.65518824 rev/day Decay rate: 4.2373e-04 rev/day^2 Epoch rev: 15158 Checksum: 349
Satellite: XATCOBEO Catalog number: 38082 Epoch time: 14243.34478676 Element set: 563 Inclination: 069.3815 deg RA of node: 097.0364 deg Eccentricity: 0.0033293 Arg of perigee: 225.1799 deg Mean anomaly: 135.4582 deg Mean motion: 16.41261006 rev/day Decay rate: 1.3583328e-01 rev/day^2 Epoch rev: 13623 Checksum: 317
Satellite: CUBEBUG-1 Catalog number: 39153 Epoch time: 15008.48142297 Element set: 775 Inclination: 098.0279 deg RA of node: 093.3098 deg Eccentricity: 0.0018388 Arg of perigee: 052.3532 deg Mean anomaly: 307.9344 deg Mean motion: 14.78592016 rev/day Decay rate: 2.858e-05 rev/day^2 Epoch rev: 9187 Checksum: 337
Satellite: ESTCUBE-1 Catalog number: 39161 Epoch time: 15008.88779460 Element set: 825 Inclination: 098.0837 deg RA of node: 093.1950 deg Eccentricity: 0.0011102 Arg of perigee: 101.6075 deg Mean anomaly: 258.6350 deg Mean motion: 14.70679342 rev/day Decay rate: 2.007e-05 rev/day^2 Epoch rev: 8982 Checksum: 303
Satellite: DUCHIFAT-1 Catalog number: 40021 Epoch time: 15008.67938966 Element set: 600 Inclination: 097.9677 deg RA of node: 268.7831 deg Eccentricity: 0.0013540 Arg of perigee: 353.7808 deg Mean anomaly: 006.3286 deg Mean motion: 14.86831528 rev/day Decay rate: 6.188e-05 rev/day^2 Epoch rev: 3009 Checksum: 324
Satellite: NANOSATCBR1 Catalog number: 40024 Epoch time: 15008.69986524 Element set: 590 Inclination: 097.9695 deg RA of node: 268.7126 deg Eccentricity: 0.0012935 Arg of perigee: 353.6502 deg Mean anomaly: 006.4572 deg Mean motion: 14.86566025 rev/day Decay rate: 4.706e-05 rev/day^2 Epoch rev: 3009 Checksum: 313
